Time,TemperatureF,DewpointF,PressureIn,WindDirection,WindDirectionDegrees,WindSpeedMPH,WindSpeedGustMPH,Humidity,HourlyPrecipIn,Conditions,Clouds,dailyrainin,SoftwareType,DateUTC
2013-01-01 00:00:00,47.4,47.4,30.14,NNE,13,0.0,0.0,100,0.00,,---,0.00,VWS V14.01,2013-01-01 05:00:00,
2013-01-01 00:01:00,47.4,47.4,30.14,NNE,13,0.0,0.0,100,0.00,,---,0.00,VWS V14.01,2013-01-01 05:01:00,
2013-01-01 00:06:00,47.3,47.3,30.14,NNE,13,0.0,0.0,100,0.00,,---,0.00,VWS V14.01,2013-01-01 05:06:00,
2013-01-01 00:11:00,47.3,47.3,30.14,NNE,13,0.0,0.0,100,0.00,,---,0.00,VWS V14.01,2013-01-01 05:11:00,
2013-01-01 00:16:00,47.3,47.3,30.14,NNE,13,0.0,0.0,100,0.00,,---,0.00,VWS V14.01,2013-01-01 05:16:00,
2013-01-01 00:21:00,47.3,47.3,30.14,NNE,13,0.0,0.0,100,0.00,,---,0.00,VWS V14.01,2013-01-01 05:21:00,
2013-01-01 00:26:00,47.1,47.1,30.14,NNE,13,0.0,0.0,100,0.00,,---,0.00,VWS V14.01,2013-01-01 05:26:00,
2013-01-01 00:30:00,47.1,47.1,30.14,NNE,13,0.0,0.0,100,0.00,,---,0.00,VWS V14.01,2013-01-01 05:30:00,
2013-01-01 00:31:00,47.1,47.1,30.14,NNE,13,0.0,0.0,100,0.00,,---,0.00,VWS V14.01,2013-01-01 05:31:00,
2013-01-01 00:36:00,47.0,47.0,30.14,NNE,13,0.0,0.0,100,0.00,,---,0.00,VWS V14.01,2013-01-01 05:36:00,
2013-01-01 00:41:00,47.0,47.0,30.14,NNE,13,0.0,0.0,100,0.00,,---,0.00,VWS V14.01,2013-01-01 05:41:00,
2013-01-01 00:46:00,47.0,47.0,30.12,NNE,13,0.0,0.0,100,0.00,,---,0.00,VWS V14.01,2013-01-01 05:46:00,
2013-01-01 00:51:00,47.0,47.0,30.12,NNE,13,0.0,0.0,100,0.00,,---,0.00,VWS V14.01,2013-01-01 05:51:00,
2013-01-01 00:56:00,47.0,47.0,30.12,NNE,13,0.0,0.0,100,0.00,,---,0.00,VWS V14.01,2013-01-01 05:56:00,
2013-01-01 01:00:00,47.0,47.0,30.13,NNE,13,0.0,0.0,100,0.00,,---,0.00,VWS V14.01,2013-01-01 06:00:00,
2013-01-01 01:01:00,47.0,47.0,30.13,NNE,13,0.0,0.0,100,0.00,,---,0.00,VWS V14.01,2013-01-01 06:01:00,
2013-01-01 01:06:00,47.0,47.0,30.13,NNE,13,0.0,0.0,100,0.00,,---,0.00,VWS V14.01,2013-01-01 06:06:00,
2013-01-01 01:11:00,47.0,47.0,30.13,NNE,13,0.0,0.0,100,0.00,,---,0.00,VWS V14.01,2013-01-01 06:11:00,
2013-01-01 01:16:00,47.3,47.3,30.12,NNE,13,0.0,0.0,100,0.00,,---,0.00,VWS V14.01,2013-01-01 06:16:00,
2013-01-01 01:21:00,47.4,47.4,30.12,NNE,13,0.0,0.0,100,0.00,,---,0.00,VWS V14.01,2013-01-01 06:21:00,
2013-01-01 01:26:00,47.9,47.9,30.12,NNE,13,0.0,0.0,100,0.00,,---,0.00,VWS V14.01,2013-01-01 06:26:00,
2013-01-01 01:30:00,48.0,48.0,30.12,NNE,13,0.0,0.0,100,0.00,,---,0.00,VWS V14.01,2013-01-01 06:30:00,
2013-01-01 01:31:00,48.2,48.2,30.12,NNE,13,0.0,0.0,100,0.00,,---,0.00,VWS V14.01,2013-01-01 06:31:00,
2013-01-01 01:36:00,48.2,48.2,30.12,NNE,13,0.0,0.0,100,0.00,,---,0.00,VWS V14.01,2013-01-01 06:36:00,
2013-01-01 01:41:00,48.2,48.2,30.12,NNE,13,0.0,0.0,100,0.00,,---,0.00,VWS V14.01,2013-01-01 06:41:00,
2013-01-01 01:46:00,48.2,48.2,30.11,NNE,13,0.0,0.0,100,0.00,,---,0.00,VWS V14.01,2013-01-01 06:46:00,
2013-01-01 01:51:00,48.0,48.0,30.11,NNE,13,0.0,0.0,100,0.00,,---,0.00,VWS V14.01,2013-01-01 06:51:00,
2013-01-01 01:56:00,48.0,48.0,30.11,NNE,13,0.0,0.0,100,0.00,,---,0.00,VWS V14.01,2013-01-01 06:56:00,
2013-01-01 02:00:00,47.9,47.9,30.11,NNE,13,0.0,0.0,100,0.00,,---,0.00,VWS V14.01,2013-01-01 07:00:00,
2013-01-01 02:01:00,47.9,47.9,30.11,NNE,13,0.0,0.0,100,0.00,,---,0.00,VWS V14.01,2013-01-01 07:01:00,
2013-01-01 02:30:00,47.1,47.1,30.09,NNE,13,0.0,0.0,100,0.00,,---,0.00,VWS V14.01,2013-01-01 07:30:00,
2013-01-01 03:00:00,47.4,47.4,30.08,NNE,13,0.0,0.0,100,0.00,,---,0.00,VWS V14.01,2013-01-01 08:00:00,
2013-01-01 03:30:00,47.7,47.7,30.08,NNE,13,0.0,0.0,100,0.00,,---,0.00,VWS V14.01,2013-01-01 08:30:00,
2013-01-01 04:00:00,47.9,47.9,30.08,NNE,13,0.0,0.0,100,0.00,,---,0.00,VWS V14.01,2013-01-01 09:00:00,
2013-01-01 04:30:00,48.8,48.8,30.08,NNE,13,0.0,0.0,100,0.00,,---,0.00,VWS V14.01,2013-01-01 09:30:00,
2013-01-01 05:00:00,49.6,49.6,30.08,NNE,13,0.0,0.0,100,0.00,,---,0.00,VWS V14.01,2013-01-01 10:00:00,
2013-01-01 05:30:00,49.8,49.8,30.07,NNE,13,0.0,0.0,100,0.00,,---,0.00,VWS V14.01,2013-01-01 10:30:00,
2013-01-01 06:00:00,50.4,50.4,30.08,NNE,13,0.0,0.0,100,0.00,,---,0.00,VWS V14.01,2013-01-01 11:00:00,
2013-01-01 06:30:00,51.7,51.7,30.06,NNE,13,0.0,2.0,100,0.01,,---,0.01,VWS V14.01,2013-01-01 11:30:00,
2013-01-01 07:00:00,52.8,52.8,30.05,NNE,20,0.0,2.0,100,0.02,,---,0.02,VWS V14.01,2013-01-01 12:00:00,
2013-01-01 07:30:00,52.5,52.5,30.05,NNE,20,0.0,0.0,100,0.02,,---,0.02,VWS V14.01,2013-01-01 12:30:00,
2013-01-01 08:00:00,53.3,53.3,30.06,NNE,20,0.0,0.0,100,0.01,,---,0.02,VWS V14.01,2013-01-01 13:00:00,
2013-01-01 08:30:00,54.8,54.8,30.07,ENE,72,0.0,2.0,100,0.02,,---,0.04,VWS V14.01,2013-01-01 13:30:00,
2013-01-01 08:34:00,55.1,55.1,30.07,ENE,72,0.0,0.0,100,0.02,,---,0.04,VWS V14.01,2013-01-01 13:34:00,
2013-01-01 08:39:00,55.4,55.4,30.07,ENE,72,0.0,0.0,100,0.02,,---,0.04,VWS V14.01,2013-01-01 13:39:00,
2013-01-01 08:44:00,55.6,55.6,30.07,ENE,72,0.0,0.0,100,0.03,,---,0.05,VWS V14.01,2013-01-01 13:44:00,
2013-01-01 08:49:00,55.9,55.9,30.07,ENE,72,0.0,0.0,100,0.03,,---,0.05,VWS V14.01,2013-01-01 13:49:00,
2013-01-01 08:54:00,56.2,56.2,30.07,ENE,72,0.0,0.0,100,0.03,,---,0.05,VWS V14.01,2013-01-01 13:54:00,
2013-01-01 08:59:00,56.5,56.5,30.07,ENE,72,0.0,0.0,100,0.03,,---,0.05,VWS V14.01,2013-01-01 13:59:00,
2013-01-01 09:00:00,56.5,56.5,30.08,ENE,72,0.0,0.0,100,0.03,,---,0.05,VWS V14.01,2013-01-01 14:00:00,
2013-01-01 09:04:00,56.6,56.6,30.08,ENE,72,0.0,0.0,100,0.03,,---,0.05,VWS V14.01,2013-01-01 14:04:00,
2013-01-01 09:09:00,57.0,57.0,30.08,ENE,72,0.0,0.0,100,0.03,,---,0.05,VWS V14.01,2013-01-01 14:09:00,
2013-01-01 09:14:00,57.2,57.2,30.08,ENE,72,0.0,0.0,100,0.03,,---,0.05,VWS V14.01,2013-01-01 14:14:00,
2013-01-01 09:19:00,57.6,57.6,30.08,South,176,0.0,2.0,100,0.03,,---,0.05,VWS V14.01,2013-01-01 14:19:00,
2013-01-01 09:23:00,58.1,58.1,30.08,South,176,0.0,2.0,100,0.04,,---,0.06,VWS V14.01,2013-01-01 14:23:00,
2013-01-01 09:28:00,58.6,58.6,30.08,South,176,0.0,2.0,100,0.04,,---,0.06,VWS V14.01,2013-01-01 14:28:00,
2013-01-01 09:30:00,58.7,58.7,30.08,South,176,0.0,2.0,100,0.04,,---,0.06,VWS V14.01,2013-01-01 14:30:00,
2013-01-01 09:33:00,59.0,58.7,30.08,West,270,0.0,0.0,99,0.02,,---,0.06,VWS V14.01,2013-01-01 14:33:00,
2013-01-01 09:38:00,59.6,59.0,30.08,SSE,165,0.0,4.0,98,0.02,,---,0.06,VWS V14.01,2013-01-01 14:38:00,
2013-01-01 09:44:00,60.1,59.0,30.08,WNW,294,0.0,4.0,96,0.02,,---,0.06,VWS V14.01,2013-01-01 14:44:00,
2013-01-01 09:49:00,60.9,58.6,30.08,SSE,148,0.0,4.0,92,0.02,,---,0.06,VWS V14.01,2013-01-01 14:49:00,
2013-01-01 09:54:00,61.3,58.3,30.08,South,185,0.0,4.0,90,0.02,,---,0.06,VWS V14.01,2013-01-01 14:54:00,
2013-01-01 09:59:00,62.0,58.4,30.08,WNW,295,0.0,4.0,88,0.02,,---,0.06,VWS V14.01,2013-01-01 14:59:00,
2013-01-01 10:00:00,62.1,58.2,30.08,SSE,147,0.0,4.0,87,0.02,,---,0.06,VWS V14.01,2013-01-01 15:00:00,
2013-01-01 10:04:00,62.6,58.0,30.08,WSW,254,0.0,0.0,85,0.01,,---,0.06,VWS V14.01,2013-01-01 15:04:00,
2013-01-01 10:09:00,63.4,58.2,30.08,South,172,0.0,1.0,83,0.01,,---,0.06,VWS V14.01,2013-01-01 15:09:00,
2013-01-01 10:14:00,64.0,57.7,30.08,South,185,0.0,3.0,80,0.01,,---,0.06,VWS V14.01,2013-01-01 15:14:00,
2013-01-01 10:19:00,64.7,58.0,30.08,SSW,203,0.0,3.0,79,0.01,,---,0.06,VWS V14.01,2013-01-01 15:19:00,
2013-01-01 10:24:00,65.5,58.1,30.08,NNW,336,0.0,3.0,77,0.01,,---,0.06,VWS V14.01,2013-01-01 15:24:00,
2013-01-01 10:29:00,66.1,57.6,30.08,WSW,243,0.0,4.0,74,0.01,,---,0.06,VWS V14.01,2013-01-01 15:29:00,
2013-01-01 10:30:00,66.1,57.6,30.08,ESE,110,0.0,5.0,74,0.01,,---,0.06,VWS V14.01,2013-01-01 15:30:00,
2013-01-01 10:34:00,66.4,57.9,30.08,North,353,0.0,3.0,74,0.00,,---,0.06,VWS V14.01,2013-01-01 15:34:00,
2013-01-01 10:39:00,66.8,57.9,30.08,SE,137,0.0,3.0,73,0.00,,---,0.06,VWS V14.01,2013-01-01 15:39:00,
2013-01-01 10:44:00,67.3,58.0,30.08,ESE,106,0.0,4.0,72,0.00,,---,0.06,VWS V14.01,2013-01-01 15:44:00,
2013-01-01 10:49:00,67.8,58.1,30.08,SW,232,0.0,4.0,71,0.00,,---,0.06,VWS V14.01,2013-01-01 15:49:00,
2013-01-01 10:54:00,68.1,58.0,30.08,SSW,206,0.0,4.0,70,0.00,,---,0.06,VWS V14.01,2013-01-01 15:54:00,
2013-01-01 10:59:00,68.6,58.0,30.08,WNW,301,0.0,6.0,69,0.00,,---,0.06,VWS V14.01,2013-01-01 15:59:00,
2013-01-01 11:00:00,68.8,57.8,30.08,SSE,151,0.0,6.0,68,0.00,,---,0.06,VWS V14.01,2013-01-01 16:00:00,
2013-01-01 11:04:00,68.9,57.5,30.08,ENE,69,0.0,3.0,67,0.00,,---,0.06,VWS V14.01,2013-01-01 16:04:00,
2013-01-01 11:09:00,69.3,57.9,30.08,ENE,65,0.0,3.0,67,0.00,,---,0.06,VWS V14.01,2013-01-01 16:09:00,
2013-01-01 11:14:00,69.9,58.5,30.06,SSW,199,0.0,3.0,67,0.00,,---,0.06,VWS V14.01,2013-01-01 16:14:00,
2013-01-01 11:19:00,70.3,58.0,30.06,SSE,160,1.0,6.0,65,0.00,,---,0.06,VWS V14.01,2013-01-01 16:19:00,
2013-01-01 11:24:00,70.4,58.1,30.06,NW,318,1.0,6.0,65,0.00,,---,0.06,VWS V14.01,2013-01-01 16:24:00,
2013-01-01 11:29:00,70.9,58.1,30.06,SSE,154,0.0,6.0,64,0.00,,---,0.06,VWS V14.01,2013-01-01 16:29:00,
2013-01-01 11:30:00,71.1,58.3,30.06,SSE,154,0.0,6.0,64,0.00,,---,0.06,VWS V14.01,2013-01-01 16:30:00,
2013-01-01 11:34:00,71.1,57.9,30.06,SSW,198,1.0,8.0,63,0.00,,---,0.06,VWS V14.01,2013-01-01 16:34:00,
2013-01-01 11:39:00,71.5,58.7,30.06,NW,322,0.0,8.0,64,0.00,,---,0.06,VWS V14.01,2013-01-01 16:39:00,
2013-01-01 11:44:00,71.6,57.9,30.05,SE,137,0.0,8.0,62,0.00,,---,0.06,VWS V14.01,2013-01-01 16:44:00,
2013-01-01 11:49:00,71.8,58.1,30.05,SSE,152,5.0,8.0,62,0.00,,---,0.06,VWS V14.01,2013-01-01 16:49:00,
2013-01-01 11:54:00,72.0,58.7,30.05,SSE,151,0.0,8.0,63,0.00,,---,0.06,VWS V14.01,2013-01-01 16:54:00,
2013-01-01 11:59:00,72.0,57.8,30.04,SW,215,0.0,8.0,61,0.00,,---,0.06,VWS V14.01,2013-01-01 16:59:00,
2013-01-01 12:00:00,72.0,58.3,30.04,WSW,258,0.0,8.0,62,0.00,,---,0.06,VWS V14.01,2013-01-01 17:00:00,
2013-01-01 12:04:00,72.3,58.6,30.04,ESE,109,0.0,0.0,62,0.00,,---,0.06,VWS V14.01,2013-01-01 17:04:00,
2013-01-01 12:09:00,72.1,57.9,30.04,ENE,59,0.0,6.0,61,0.00,,---,0.06,VWS V14.01,2013-01-01 17:09:00,
2013-01-01 12:14:00,71.8,58.1,30.03,South,179,0.0,6.0,62,0.00,,---,0.06,VWS V14.01,2013-01-01 17:14:00,
2013-01-01 12:19:00,72.0,58.3,30.03,SE,141,0.0,6.0,62,0.00,,---,0.06,VWS V14.01,2013-01-01 17:19:00,
2013-01-01 12:24:00,72.0,58.7,30.03,SSE,165,0.0,6.0,63,0.00,,---,0.06,VWS V14.01,2013-01-01 17:24:00,
2013-01-01 12:29:00,72.3,58.1,30.02,SSW,209,0.0,6.0,61,0.00,,---,0.06,VWS V14.01,2013-01-01 17:29:00,
2013-01-01 12:30:00,72.3,58.1,30.02,SSW,213,0.0,6.0,61,0.00,,---,0.06,VWS V14.01,2013-01-01 17:30:00,
2013-01-01 12:34:00,72.5,58.3,30.02,WSW,243,0.0,5.0,61,0.00,,---,0.06,VWS V14.01,2013-01-01 17:34:00,
2013-01-01 12:39:00,72.8,58.1,30.02,NNW,346,0.0,5.0,60,0.00,,---,0.06,VWS V14.01,2013-01-01 17:39:00,
2013-01-01 12:44:00,72.7,58.5,30.01,SSE,165,0.0,5.0,61,0.00,,---,0.06,VWS V14.01,2013-01-01 17:44:00,
2013-01-01 12:49:00,72.8,58.1,30.01,WSW,250,2.0,7.0,60,0.00,,---,0.06,VWS V14.01,2013-01-01 17:49:00,
2013-01-01 12:54:00,73.5,57.8,30.01,South,174,0.0,7.0,58,0.00,,---,0.06,VWS V14.01,2013-01-01 17:54:00,
2013-01-01 12:59:00,73.7,58.0,30.00,SSW,203,1.0,7.0,58,0.00,,---,0.06,VWS V14.01,2013-01-01 17:59:00,
2013-01-01 13:00:00,73.7,58.0,30.00,SSE,151,2.0,7.0,58,0.00,,---,0.06,VWS V14.01,2013-01-01 18:00:00,
2013-01-01 13:04:00,73.7,58.0,30.00,WNW,296,3.0,6.0,58,0.00,,---,0.06,VWS V14.01,2013-01-01 18:04:00,
2013-01-01 13:09:00,74.2,58.0,30.00,West,270,0.0,9.0,57,0.00,,---,0.06,VWS V14.01,2013-01-01 18:09:00,
2013-01-01 13:14:00,74.9,57.2,30.00,SSW,195,0.0,9.0,54,0.00,,---,0.06,VWS V14.01,2013-01-01 18:14:00,
2013-01-01 13:19:00,75.3,58.0,30.00,SSW,202,0.0,9.0,55,0.00,,---,0.06,VWS V14.01,2013-01-01 18:19:00,
2013-01-01 13:24:00,74.4,57.2,30.00,SSW,203,0.0,9.0,55,0.00,,---,0.06,VWS V14.01,2013-01-01 18:24:00,
2013-01-01 13:29:00,74.0,57.8,29.99,ESE,119,1.0,9.0,57,0.00,,---,0.06,VWS V14.01,2013-01-01 18:29:00,
2013-01-01 13:30:00,73.9,57.7,29.99,WSW,253,0.0,9.0,57,0.00,,---,0.06,VWS V14.01,2013-01-01 18:30:00,
2013-01-01 13:34:00,73.5,57.8,29.99,WNW,282,0.0,3.0,58,0.00,,---,0.06,VWS V14.01,2013-01-01 18:34:00,
2013-01-01 13:39:00,73.3,57.7,29.99,NW,312,0.0,3.0,58,0.00,,---,0.06,VWS V14.01,2013-01-01 18:39:00,
2013-01-01 13:44:00,73.5,57.8,29.98,SW,227,0.0,3.0,58,0.00,,---,0.06,VWS V14.01,2013-01-01 18:44:00,
2013-01-01 13:49:00,73.7,57.5,29.98,SSE,160,0.0,3.0,57,0.00,,---,0.06,VWS V14.01,2013-01-01 18:49:00,
2013-01-01 13:54:00,73.5,57.8,29.98,NW,305,0.0,3.0,58,0.00,,---,0.06,VWS V14.01,2013-01-01 18:54:00,
2013-01-01 13:59:00,73.2,57.5,29.98,WSW,258,0.0,3.0,58,0.00,,---,0.06,VWS V14.01,2013-01-01 18:59:00,
2013-01-01 14:00:00,73.0,57.4,29.98,South,178,0.0,3.0,58,0.00,,---,0.06,VWS V14.01,2013-01-01 19:00:00,
2013-01-01 14:04:00,73.2,57.5,29.98,SW,232,0.0,0.0,58,0.00,,---,0.06,VWS V14.01,2013-01-01 19:04:00,
2013-01-01 14:09:00,73.5,57.3,29.98,WNW,298,0.0,0.0,57,0.00,,---,0.06,VWS V14.01,2013-01-01 19:09:00,
2013-01-01 14:14:00,74.0,57.8,29.98,SSE,158,0.0,2.0,57,0.00,,---,0.06,VWS V14.01,2013-01-01 19:14:00,
2013-01-01 14:19:00,74.6,57.4,29.98,WSW,243,0.0,2.0,55,0.00,,---,0.06,VWS V14.01,2013-01-01 19:19:00,
2013-01-01 14:24:00,74.2,57.5,29.98,SW,219,0.0,5.0,56,0.00,,---,0.06,VWS V14.01,2013-01-01 19:24:00,
2013-01-01 14:30:00,73.9,57.7,29.97,WNW,296,0.0,5.0,57,0.00,,---,0.06,VWS V14.01,2013-01-01 19:30:00,
2013-01-01 14:35:00,74.0,57.3,29.97,SSE,165,0.0,0.0,56,0.00,,---,0.06,VWS V14.01,2013-01-01 19:35:00,
2013-01-01 14:40:00,74.4,57.7,29.97,WSW,239,0.0,1.0,56,0.00,,---,0.06,VWS V14.01,2013-01-01 19:40:00,
2013-01-01 14:45:00,74.7,57.5,29.96,SSW,199,0.0,1.0,55,0.00,,---,0.06,VWS V14.01,2013-01-01 19:45:00,
2013-01-01 14:50:00,75.1,57.3,29.96,NE,54,6.0,6.0,54,0.00,,---,0.06,VWS V14.01,2013-01-01 19:50:00,
2013-01-01 14:55:00,75.3,57.5,29.96,SSW,200,0.0,6.0,54,0.00,,---,0.06,VWS V14.01,2013-01-01 19:55:00,
2013-01-01 15:00:00,75.4,57.6,29.96,WNW,295,0.0,6.0,54,0.00,,---,0.06,VWS V14.01,2013-01-01 20:00:00,
2013-01-01 15:05:00,75.4,58.1,29.96,SSE,160,0.0,3.0,55,0.00,,---,0.06,VWS V14.01,2013-01-01 20:05:00,
2013-01-01 15:10:00,75.4,57.6,29.96,WSW,248,0.0,8.0,54,0.00,,---,0.06,VWS V14.01,2013-01-01 20:10:00,
2013-01-01 15:15:00,75.4,57.6,29.96,SW,219,0.0,8.0,54,0.00,,---,0.06,VWS V14.01,2013-01-01 20:15:00,
2013-01-01 15:20:00,75.8,57.5,29.96,South,191,0.0,8.0,53,0.00,,---,0.06,VWS V14.01,2013-01-01 20:20:00,
2013-01-01 15:25:00,75.4,56.6,29.96,SE,128,0.0,8.0,52,0.00,,---,0.06,VWS V14.01,2013-01-01 20:25:00,
2013-01-01 15:30:00,75.6,56.8,29.96,SE,143,0.0,8.0,52,0.00,,---,0.06,VWS V14.01,2013-01-01 20:30:00,
2013-01-01 15:35:00,75.4,56.6,29.96,WSW,241,0.0,1.0,52,0.00,,---,0.06,VWS V14.01,2013-01-01 20:35:00,
2013-01-01 15:40:00,75.4,57.1,29.96,WSW,248,0.0,2.0,53,0.00,,---,0.06,VWS V14.01,2013-01-01 20:40:00,
2013-01-01 15:45:00,75.1,57.3,29.96,WNW,288,0.0,3.0,54,0.00,,---,0.06,VWS V14.01,2013-01-01 20:45:00,
2013-01-01 15:50:00,74.7,57.0,29.96,North,352,1.0,6.0,54,0.00,,---,0.06,VWS V14.01,2013-01-01 20:50:00,
2013-01-01 15:55:00,74.2,57.0,29.96,SSW,210,0.0,6.0,55,0.00,,---,0.06,VWS V14.01,2013-01-01 20:55:00,
2013-01-01 16:00:00,73.7,57.0,29.96,NW,316,0.0,6.0,56,0.00,,---,0.06,VWS V14.01,2013-01-01 21:00:00,
2013-01-01 16:05:00,73.3,57.2,29.96,NNW,347,1.0,4.0,57,0.00,,---,0.06,VWS V14.01,2013-01-01 21:05:00,
2013-01-01 16:10:00,73.0,57.4,29.96,West,261,0.0,4.0,58,0.00,,---,0.06,VWS V14.01,2013-01-01 21:10:00,
2013-01-01 16:15:00,72.8,57.2,29.96,NW,315,0.0,4.0,58,0.00,,---,0.06,VWS V14.01,2013-01-01 21:15:00,
2013-01-01 16:20:00,72.7,57.6,29.96,SSE,157,0.0,4.0,59,0.00,,---,0.06,VWS V14.01,2013-01-01 21:20:00,
2013-01-01 16:25:00,72.5,57.4,29.96,SSW,196,0.0,4.0,59,0.00,,---,0.06,VWS V14.01,2013-01-01 21:25:00,
2013-01-01 16:30:00,72.3,57.2,29.95,SSE,164,0.0,4.0,59,0.00,,---,0.06,VWS V14.01,2013-01-01 21:30:00,
2013-01-01 16:35:00,72.1,57.0,29.95,SSE,167,0.0,3.0,59,0.00,,---,0.06,VWS V14.01,2013-01-01 21:35:00,
2013-01-01 16:40:00,71.8,57.2,29.95,SE,145,0.0,5.0,60,0.00,,---,0.06,VWS V14.01,2013-01-01 21:40:00,
2013-01-01 16:45:00,71.8,57.6,29.96,SE,145,0.0,5.0,61,0.00,,---,0.06,VWS V14.01,2013-01-01 21:45:00,
2013-01-01 16:50:00,71.5,57.4,29.96,SSE,147,0.0,5.0,61,0.00,,---,0.06,VWS V14.01,2013-01-01 21:50:00,
2013-01-01 16:55:00,71.3,57.2,29.96,NNE,14,0.0,5.0,61,0.00,,---,0.06,VWS V14.01,2013-01-01 21:55:00,
2013-01-01 17:00:00,71.1,57.4,29.95,ENE,66,0.0,5.0,62,0.00,,---,0.06,VWS V14.01,2013-01-01 22:00:00,
2013-01-01 17:05:00,70.8,57.2,29.95,ENE,66,0.0,0.0,62,0.00,,---,0.06,VWS V14.01,2013-01-01 22:05:00,
2013-01-01 17:10:00,70.4,57.2,29.95,SW,234,0.0,2.0,63,0.00,,---,0.06,VWS V14.01,2013-01-01 22:10:00,
2013-01-01 17:15:00,70.3,57.6,29.97,SW,234,0.0,2.0,64,0.00,,---,0.06,VWS V14.01,2013-01-01 22:15:00,
2013-01-01 17:20:00,70.1,57.4,29.97,SW,234,0.0,2.0,64,0.00,,---,0.06,VWS V14.01,2013-01-01 22:20:00,
2013-01-01 17:25:00,69.9,57.2,29.97,SW,234,0.0,2.0,64,0.00,,---,0.06,VWS V14.01,2013-01-01 22:25:00,
2013-01-01 17:30:00,69.6,57.3,29.96,SW,234,0.0,2.0,65,0.00,,---,0.06,VWS V14.01,2013-01-01 22:30:00,
2013-01-01 17:35:00,69.3,57.5,29.96,SW,234,0.0,0.0,66,0.00,,---,0.06,VWS V14.01,2013-01-01 22:35:00,
2013-01-01 17:40:00,68.8,57.4,29.96,SW,234,0.0,0.0,67,0.00,,---,0.06,VWS V14.01,2013-01-01 22:40:00,
2013-01-01 17:45:00,68.3,56.9,29.96,SW,234,0.0,0.0,67,0.00,,---,0.06,VWS V14.01,2013-01-01 22:45:00,
2013-01-01 17:50:00,67.8,57.3,29.96,SW,234,0.0,0.0,69,0.00,,---,0.06,VWS V14.01,2013-01-01 22:50:00,
2013-01-01 17:55:00,67.4,56.9,29.96,SW,234,0.0,0.0,69,0.00,,---,0.06,VWS V14.01,2013-01-01 22:55:00,
2013-01-01 18:00:00,66.9,56.8,29.95,SW,234,0.0,0.0,70,0.00,,---,0.06,VWS V14.01,2013-01-01 23:00:00,
2013-01-01 18:05:00,66.4,56.7,29.95,SW,234,0.0,0.0,71,0.00,,---,0.06,VWS V14.01,2013-01-01 23:05:00,
2013-01-01 18:10:00,66.0,56.7,29.95,SW,234,0.0,0.0,72,0.00,,---,0.06,VWS V14.01,2013-01-01 23:10:00,
2013-01-01 18:15:00,65.5,56.6,29.95,SW,234,0.0,0.0,73,0.00,,---,0.06,VWS V14.01,2013-01-01 23:15:00,
2013-01-01 18:20:00,65.0,56.5,29.95,SW,234,0.0,0.0,74,0.00,,---,0.06,VWS V14.01,2013-01-01 23:20:00,
2013-01-01 18:25:00,64.7,56.6,29.95,SW,234,0.0,0.0,75,0.00,,---,0.06,VWS V14.01,2013-01-01 23:25:00,
2013-01-01 18:30:00,64.3,56.2,29.95,SW,234,0.0,0.0,75,0.00,,---,0.06,VWS V14.01,2013-01-01 23:30:00,
2013-01-01 18:35:00,64.0,56.3,29.95,SW,234,0.0,0.0,76,0.00,,---,0.06,VWS V14.01,2013-01-01 23:35:00,
2013-01-01 18:40:00,63.5,56.2,29.95,SW,234,0.0,0.0,77,0.00,,---,0.06,VWS V14.01,2013-01-01 23:40:00,
2013-01-01 18:45:00,63.2,56.2,29.96,SW,234,0.0,0.0,78,0.00,,---,0.06,VWS V14.01,2013-01-01 23:45:00,
2013-01-01 18:50:00,62.7,56.1,29.96,SW,234,0.0,0.0,79,0.00,,---,0.06,VWS V14.01,2013-01-01 23:50:00,
2013-01-01 18:55:00,62.4,56.2,29.96,SW,234,0.0,0.0,80,0.00,,---,0.06,VWS V14.01,2013-01-01 23:55:00,
2013-01-01 19:00:00,62.1,55.9,29.96,SW,234,0.0,0.0,80,0.00,,---,0.06,VWS V14.01,2013-01-02 00:00:00,
2013-01-01 19:05:00,61.8,55.9,29.96,SW,234,0.0,0.0,81,0.00,,---,0.06,VWS V14.01,2013-01-02 00:05:00,
2013-01-01 19:10:00,61.5,56.0,29.96,SW,234,0.0,0.0,82,0.00,,---,0.06,VWS V14.01,2013-01-02 00:10:00,
2013-01-01 19:15:00,61.2,56.0,29.96,SW,234,0.0,0.0,83,0.00,,---,0.06,VWS V14.01,2013-01-02 00:15:00,
2013-01-01 19:20:00,60.9,55.7,29.96,SW,234,0.0,0.0,83,0.00,,---,0.06,VWS V14.01,2013-01-02 00:20:00,
2013-01-01 19:25:00,60.5,55.7,29.96,SW,234,0.0,0.0,84,0.00,,---,0.06,VWS V14.01,2013-01-02 00:25:00,
2013-01-01 19:30:00,60.1,55.6,29.96,SW,234,0.0,0.0,85,0.00,,---,0.06,VWS V14.01,2013-01-02 00:30:00,
2013-01-01 19:35:00,59.9,55.7,29.96,SW,234,0.0,0.0,86,0.00,,---,0.06,VWS V14.01,2013-01-02 00:35:00,
2013-01-01 19:40:00,59.6,55.4,29.96,SW,234,0.0,0.0,86,0.00,,---,0.06,VWS V14.01,2013-01-02 00:40:00,
2013-01-01 19:45:00,59.5,55.6,29.96,SW,234,0.0,0.0,87,0.00,,---,0.06,VWS V14.01,2013-01-02 00:45:00,
2013-01-01 19:50:00,59.3,55.4,29.96,SW,234,0.0,0.0,87,0.00,,---,0.06,VWS V14.01,2013-01-02 00:50:00,
2013-01-01 19:55:00,59.0,55.5,29.96,SW,234,0.0,0.0,88,0.00,,---,0.06,VWS V14.01,2013-01-02 00:55:00,
2013-01-01 20:00:00,58.9,55.4,29.96,SW,234,0.0,0.0,88,0.00,,---,0.06,VWS V14.01,2013-01-02 01:00:00,
2013-01-01 20:05:00,58.7,55.5,29.96,SW,234,0.0,0.0,89,0.00,,---,0.06,VWS V14.01,2013-01-02 01:05:00,
2013-01-01 20:10:00,58.6,55.4,29.96,SW,234,0.0,0.0,89,0.00,,---,0.06,VWS V14.01,2013-01-02 01:10:00,
2013-01-01 20:15:00,58.3,55.4,29.96,SW,234,0.0,0.0,90,0.00,,---,0.06,VWS V14.01,2013-01-02 01:15:00,
2013-01-01 20:20:00,58.1,55.2,29.96,SW,234,0.0,0.0,90,0.00,,---,0.06,VWS V14.01,2013-01-02 01:20:00,
2013-01-01 20:25:00,58.0,55.1,29.96,SW,234,0.0,0.0,90,0.00,,---,0.06,VWS V14.01,2013-01-02 01:25:00,
2013-01-01 20:30:00,57.8,55.2,29.96,SW,234,0.0,0.0,91,0.00,,---,0.06,VWS V14.01,2013-01-02 01:30:00,
2013-01-01 20:35:00,57.6,55.0,29.96,SW,234,0.0,0.0,91,0.00,,---,0.06,VWS V14.01,2013-01-02 01:35:00,
2013-01-01 20:40:00,57.5,54.9,29.96,SW,234,0.0,0.0,91,0.00,,---,0.06,VWS V14.01,2013-01-02 01:40:00,
2013-01-01 20:45:00,57.5,54.9,29.96,SW,234,0.0,0.0,91,0.00,,---,0.06,VWS V14.01,2013-01-02 01:45:00,
2013-01-01 20:50:00,57.5,55.2,29.96,SW,234,0.0,0.0,92,0.00,,---,0.06,VWS V14.01,2013-01-02 01:50:00,
2013-01-01 20:55:00,57.5,55.2,29.96,SW,234,0.0,0.0,92,0.00,,---,0.06,VWS V14.01,2013-01-02 01:55:00,
2013-01-01 21:00:00,57.3,55.0,29.96,SW,234,0.0,0.0,92,0.00,,---,0.06,VWS V14.01,2013-01-02 02:00:00,
2013-01-01 21:05:00,57.2,54.9,29.96,SW,234,0.0,0.0,92,0.00,,---,0.06,VWS V14.01,2013-01-02 02:05:00,
2013-01-01 21:10:00,57.0,54.7,29.96,SW,234,0.0,0.0,92,0.00,,---,0.06,VWS V14.01,2013-01-02 02:10:00,
2013-01-01 21:15:00,57.0,55.0,29.95,SW,234,0.0,0.0,93,0.00,,---,0.06,VWS V14.01,2013-01-02 02:15:00,
2013-01-01 21:20:00,56.9,54.9,29.95,SW,234,0.0,0.0,93,0.00,,---,0.06,VWS V14.01,2013-01-02 02:20:00,
2013-01-01 21:25:00,56.9,54.9,29.95,SW,234,0.0,0.0,93,0.00,,---,0.06,VWS V14.01,2013-01-02 02:25:00,
2013-01-01 21:30:00,56.7,54.7,29.95,SW,234,0.0,0.0,93,0.00,,---,0.06,VWS V14.01,2013-01-02 02:30:00,
2013-01-01 21:35:00,56.6,54.6,29.95,SW,234,0.0,0.0,93,0.00,,---,0.06,VWS V14.01,2013-01-02 02:35:00,
2013-01-01 21:40:00,56.5,54.5,29.95,SW,234,0.0,0.0,93,0.00,,---,0.06,VWS V14.01,2013-01-02 02:40:00,
2013-01-01 21:45:00,56.3,54.6,29.95,SW,234,0.0,0.0,94,0.00,,---,0.06,VWS V14.01,2013-01-02 02:45:00,
2013-01-01 21:50:00,56.2,54.5,29.95,SW,234,0.0,0.0,94,0.00,,---,0.06,VWS V14.01,2013-01-02 02:50:00,
2013-01-01 21:55:00,56.0,54.3,29.95,SW,234,0.0,0.0,94,0.00,,---,0.06,VWS V14.01,2013-01-02 02:55:00,
2013-01-01 22:00:00,55.9,54.2,29.95,SW,234,0.0,0.0,94,0.00,,---,0.06,VWS V14.01,2013-01-02 03:00:00,
2013-01-01 22:05:00,55.7,54.3,29.95,SW,234,0.0,0.0,95,0.00,,---,0.06,VWS V14.01,2013-01-02 03:05:00,
2013-01-01 22:10:00,55.6,54.2,29.95,SW,234,0.0,0.0,95,0.00,,---,0.06,VWS V14.01,2013-01-02 03:10:00,
2013-01-01 22:15:00,55.4,54.0,29.95,SW,234,0.0,0.0,95,0.00,,---,0.06,VWS V14.01,2013-01-02 03:15:00,
2013-01-01 22:20:00,55.3,53.9,29.95,SW,234,0.0,0.0,95,0.00,,---,0.06,VWS V14.01,2013-01-02 03:20:00,
2013-01-01 22:25:00,55.3,53.9,29.95,SW,234,0.0,0.0,95,0.00,,---,0.06,VWS V14.01,2013-01-02 03:25:00,
2013-01-01 22:30:00,55.1,54.0,29.95,SW,234,0.0,0.0,96,0.00,,---,0.06,VWS V14.01,2013-01-02 03:30:00,
2013-01-01 22:35:00,55.1,54.0,29.95,SW,234,0.0,0.0,96,0.00,,---,0.06,VWS V14.01,2013-01-02 03:35:00,
2013-01-01 22:40:00,55.0,53.9,29.95,SW,234,0.0,0.0,96,0.00,,---,0.06,VWS V14.01,2013-01-02 03:40:00,
2013-01-01 22:45:00,54.8,53.7,29.95,SW,234,0.0,0.0,96,0.00,,---,0.06,VWS V14.01,2013-01-02 03:45:00,
2013-01-01 22:50:00,54.7,53.6,29.95,SW,234,0.0,0.0,96,0.00,,---,0.06,VWS V14.01,2013-01-02 03:50:00,
2013-01-01 22:55:00,54.7,53.6,29.95,SW,234,0.0,0.0,96,0.00,,---,0.06,VWS V14.01,2013-01-02 03:55:00,
2013-01-01 23:00:00,54.8,54.0,29.95,SW,234,0.0,0.0,97,0.00,,---,0.06,VWS V14.01,2013-01-02 04:00:00,
2013-01-01 23:05:00,54.8,54.0,29.95,SW,234,0.0,0.0,97,0.00,,---,0.06,VWS V14.01,2013-01-02 04:05:00,
2013-01-01 23:10:00,54.8,54.0,29.95,SW,234,0.0,0.0,97,0.00,,---,0.06,VWS V14.01,2013-01-02 04:10:00,
2013-01-01 23:15:00,54.8,54.0,29.95,SW,234,0.0,0.0,97,0.00,,---,0.06,VWS V14.01,2013-01-02 04:15:00,
2013-01-01 23:21:00,54.8,54.0,29.95,SW,234,0.0,0.0,97,0.00,,---,0.06,VWS V14.01,2013-01-02 04:21:00,
2013-01-01 23:26:00,54.8,54.0,29.95,SW,234,0.0,0.0,97,0.00,,---,0.06,VWS V14.01,2013-01-02 04:26:00,
2013-01-01 23:30:00,54.8,54.0,29.94,SW,234,0.0,0.0,97,0.00,,---,0.06,VWS V14.01,2013-01-02 04:30:00,
2013-01-01 23:31:00,54.8,54.0,29.94,SW,234,0.0,0.0,97,0.00,,---,0.06,VWS V14.01,2013-01-02 04:31:00,
2013-01-01 23:36:00,54.8,54.0,29.94,SW,234,0.0,0.0,97,0.00,,---,0.06,VWS V14.01,2013-01-02 04:36:00,
2013-01-01 23:41:00,54.8,54.2,29.94,SW,234,0.0,0.0,98,0.00,,---,0.06,VWS V14.01,2013-01-02 04:41:00,
2013-01-01 23:45:00,54.8,54.2,29.93,SW,234,0.0,0.0,98,0.00,,---,0.06,VWS V14.01,2013-01-02 04:45:00,
2013-01-01 23:51:00,54.8,54.2,29.93,SW,234,0.0,0.0,98,0.00,,---,0.06,VWS V14.01,2013-01-02 04:51:00,
2013-01-01 23:56:00,54.8,54.2,29.93,SW,234,0.0,0.0,98,0.00,,---,0.06,VWS V14.01,2013-01-02 04:56:00,